EW8146 Weather Reports


time (UTC)temp
F
wind
direction
speed
knots
gust
knots
rain 1hr
in
rain 24hr
in
rain mn
in
humidity
%
barometer
mb
20260506004546 78 285 4.3 14.8 0.00 0.00 0.00 23 1003.8
20260506003046 79 322 3.5 8.7 0.00 0.00 0.00 21 1003.7
20260506001546 79 325 2.6 13.9 0.00 0.00 0.00 23 1003.6
20260506000044 79 298 2.6 10.4 0.00 0.00 0.00 23 1003.6
20260505234544 79 286 4.3 9.6 0.00 0.00 0.00 23 1003.7
20260505233042 79 295 2.6 8.7 0.00 0.00 0.00 24 1003.7
20260505231543 79 326 4.3 10.4 0.00 0.00 0.00 25 1003.6
20260505230054 79 276 4.3 12.2 0.00 0.00 0.00 23 1003.8
20260505224540 79 276 3.5 12.2 0.00 0.00 0.00 22 1003.9
20260505223049 79 342 0.0 9.6 0.00 0.00 0.00 27 1004.0
20260505221537 78 316 0.9 6.1 0.00 0.00 0.00 27 1004.3
20260505220041 78 297 0.9 9.6 0.00 0.00 0.00 27 1004.5
20260505214532 78 300 0.9 8.7 0.00 0.00 0.00 29 1004.8
20260505213048 77 307 1.7 9.6 0.00 0.00 0.00 29 1004.9
20260505211530 77 330 1.7 8.7 0.00 0.00 0.00 30 1005.1
20260505210026 77 333 0.0 8.7 0.00 0.00 0.00 30 1005.3
20260505204525 77 304 0.0 7.0 0.00 0.00 0.00 30 1005.5
20260505203039 76 289 0.9 7.0 0.00 0.00 0.00 29 1005.7
20260505201524 76 283 0.0 5.2 0.00 0.00 0.00 30 1005.6
20260505200031 75 321 0.0 5.2 0.00 0.00 0.00 30 1005.9
20260505194518 75 314 0.9 7.0 0.00 0.00 0.00 32 1006.0
20260505193017 74 334 0.9 6.1 0.00 0.00 0.00 31 1006.2
20260505191516 74 279 0.0 3.5 0.00 0.00 0.00 31 1006.3
20260505190015 73 280 0.0 2.6 0.00 0.00 0.00 31 1006.6
20260505184516 72 284 0.9 5.2 0.00 0.00 0.00 34 1006.7
20260505183009 72 227 0.0 0.0 0.00 0.00 0.00 31 1006.9
20260505181508 71 278 0.9 4.3 0.00 0.00 0.00 35 1006.9
20260505180005 71 287 0.0 2.6 0.00 0.00 0.00 33 1007.0
20260505174504 70 322 0.0 2.6 0.00 0.00 0.00 35 1007.0
20260505173004 69 274 0.0 2.6 0.00 0.00 0.00 37 1007.0
20260505171600 69 347 0.0 0.9 0.00 0.00 0.00 36 1007.0
20260505170100 68 240 0.0 0.9 0.00 0.00 0.00 35 1006.8
20260505164604 69 100 0.0 0.0 0.00 0.00 0.00 35 1006.8
20260505163100 68 59 0.0 0.0 0.00 0.00 0.00 37 1006.8
20260505161552 67 330 0.0 0.9 0.00 0.00 0.00 39 1006.7
20260505153105 66 243 0.0 0.9 0.00 0.00 0.00 40 1006.6
20260505151554 65 336 0.0 0.0 0.00 0.00 0.00 45 1006.6
20260505124527 50 15 0.0 0.0 0.00 0.00 0.00 70 1004.6
20260505123022 49 98 0.0 0.0 0.00 0.00 0.00 71 1004.4
20260505121519 50 98 0.0 0.0 0.00 0.00 0.00 70 1004.2
20260505120017 50 312 0.0 0.0 0.00 0.00 0.00 69 1003.8
20260505114529 51 312 0.0 0.0 0.00 0.00 0.00 67 1003.6
20260505113012 51 269 0.0 0.0 0.00 0.00 0.00 66 1003.4
20260505111509 52 274 0.0 0.0 0.00 0.00 0.00 65 1003.2
20260505101559 57 295 0.0 0.0 0.00 0.00 0.00 53 1002.3
20260505100055 57 279 0.0 0.9 0.00 0.00 0.00 52 1002.1
20260505094553 57 275 0.0 2.6 0.00 0.00 0.00 52 1002.0
20260505093046 59 275 0.0 0.0 0.00 0.00 0.00 49 1002.0
20260505091554 60 278 0.0 4.3 0.00 0.00 0.00 47 1001.6
20260505090052 60 342 1.7 7.8 0.00 0.00 0.00 46 1001.4
20260505084538 61 298 0.0 5.2 0.00 0.00 0.00 45 1001.3
20260505083042 61 265 0.9 7.0 0.00 0.00 0.00 45 1001.2
20260505081550 61 267 0.9 6.1 0.00 0.00 0.00 47 1001.1
20260505080042 61 299 0.0 6.1 0.00 0.00 0.00 47 1001.1
20260505074530 61 280 0.9 7.0 0.00 0.00 0.00 47 1001.0
20260505073029 61 293 0.9 5.2 0.00 0.00 0.00 46 1001.1
20260505071529 62 282 0.0 3.5 0.00 0.00 0.00 45 1001.0
20260505070026 63 285 0.9 4.3 0.00 0.00 0.00 43 1000.9
20260505064520 63 288 0.0 3.5 0.00 0.00 0.00 43 1000.7
20260505063023 63 283 0.0 4.3 0.00 0.00 0.00 43 1000.6
20260505061526 64 309 0.0 4.3 0.00 0.00 0.00 41 1000.6
20260505060014 64 299 0.0 3.5 0.00 0.00 0.00 41 1000.5
20260505054627 64 288 0.0 3.5 0.00 0.00 0.00 41 1000.3
20260505053013 65 310 0.0 4.3 0.00 0.00 0.00 41 1000.2
20260505051512 65 286 0.0 2.6 0.00 0.00 0.00 43 1000.2
20260505041511 67 285 0.0 0.0 0.00 0.00 0.00 41 1000.2
20260505040009 69 290 0.0 2.6 0.00 0.00 0.00 38 1000.1
20260505034509 71 289 0.0 2.6 0.00 0.00 0.00 34 999.9
20260505033018 72 303 0.0 0.9 0.00 0.00 0.00 33 999.8
20260505031508 73 288 0.0 3.5 0.00 0.00 0.00 31 999.5
20260505030008 75 290 0.0 6.1 0.00 0.00 0.00 31 999.4
20260505024520 76 294 0.0 3.5 0.00 0.00 0.00 30 999.3
20260505023005 77 295 0.0 5.2 0.00 0.00 0.00 28 999.2
20260505021518 78 298 0.0 7.0 0.00 0.00 0.00 26 999.1
20260505020004 79 299 2.6 7.8 0.00 0.00 0.00 25 999.0
20260505014502 80 295 1.7 7.0 0.00 0.00 0.00 25 999.1
20260505013001 80 302 1.7 8.7 0.00 0.00 0.00 24 999.2
20260505011600 81 306 0.9 7.0 0.00 0.00 0.00 23 999.3
20260505010057 81 307 3.5 8.7 0.00 0.00 0.00 22 999.4